Location: ?????
(44.4284°N, 135.2222°E)
Time: 05:13:04
(UTC+00:00)

Cosmos 1869 Rocket - Pass Details

Date: 19 May 2025
Orbit: 599 x 626 km, 82.5° (Epoch: 19 June)

Event Time Altitude Azimuth Distance (km) Brightness Sun altitude
Rises 16:43:03 0° 349° (NNW) 2,922 7.8 -21.1°
Reaches altitude 10° 16:45:18 10° 347° (NNW) 2,011 6.8 -20.9°
Maximum altitude 16:49:44 69° 265° (W) 673 3.5 -20.6°
Enters shadow 16:50:35 54° 207° (SSW) 764 3.6 -20.5°
